Terminal Aerodrome Forecast
Issued by NWS Portland, OR

Home | Current Version | Previous Version | Text Only | Print | Product List | Glossary On
Versions: 1 2 3 4 5 6 7 8 9 10 11 12 13 14 15 16 17 18 19 20 21 22 23 24 25 26 27 28 29 30
000
FTUS46 KPQR 232150 AAB
TAFHIO
TAF AMD
KHIO 232150Z 2322/2418 16008KT P6SM -SHRA SCT020 BKN080
     FM240100 20009KT P6SM SCT030 OVC050
     FM241400 18004KT P6SM OVC050=

USA.gov is the U.S. government's official web portal to all federal, state and local government web resources and services.